GW2584 Weather Reports


Display with metric or nautical units.
time (UTC)temp
F
wind
direction
speed
MPH
gust
MPH
rain 1hr
in
rain 24hr
in
rain mn
in
humidity
%
barometer
mb
20260510124602 41 0 0.0 1.0 0.00 0.01 0.00 93 1026.0
20260510123058 40 0 0.0 0.0 0.00 0.01 0.00 93 1026.2
20260510121558 40 0 0.0 0.0 0.00 0.01 0.00 93 1026.3
20260510120056 40 0 0.0 2.0 0.00 0.01 0.00 93 1026.1
20260510114620 40 25 0.0 1.0 0.00 0.01 0.00 92 1026.1
20260510113101 40 0 0.0 1.0 0.00 0.01 0.00 91 1025.8
20260510111602 41 105 0.0 1.0 0.00 0.01 0.00 90 1025.7
20260510110104 41 0 0.0 1.0 0.00 0.01 0.00 90 1025.7
20260510104557 41 0 0.0 1.0 0.00 0.01 0.00 90 1025.6
20260510103100 41 0 0.0 0.0 0.00 0.01 0.00 90 1025.6
20260510101608 41 0 0.0 0.0 0.00 0.01 0.00 90 1025.5
20260510100111 41 0 0.0 1.0 0.00 0.01 0.00 90 1025.3
20260510094557 41 0 0.0 1.0 0.00 0.01 0.00 90 1025.2
20260510093059 41 0 0.0 2.0 0.00 0.01 0.00 90 1025.1
20260510091558 41 0 0.0 0.0 0.00 0.01 0.00 90 1025.2
20260510090058 41 0 0.0 0.0 0.00 0.01 0.00 89 1024.9
20260510084610 41 0 0.0 0.0 0.00 0.01 0.00 89 1024.6
20260510083058 41 0 0.0 0.0 0.00 0.01 0.00 89 1024.5
20260510081607 41 0 0.0 0.0 0.00 0.01 0.00 89 1024.6
20260510080104 41 0 0.0 0.0 0.00 0.01 0.00 88 1024.7
20260510074557 41 0 0.0 1.0 0.00 0.01 0.00 88 1024.6
20260510073100 41 194 1.0 2.0 0.00 0.01 0.00 89 1024.7
20260510071556 41 0 0.0 1.0 0.00 0.01 0.00 88 1024.9
20260510070113 41 0 0.0 0.0 0.00 0.01 0.00 87 1024.9
20260510064558 42 0 0.0 0.0 0.00 0.01 0.00 89 1025.0
20260510063057 42 0 0.0 1.0 0.00 0.01 0.00 89 1025.1
20260510061556 42 0 0.0 0.0 0.00 0.01 0.00 89 1025.3
20260510060059 42 0 0.0 0.0 0.00 0.01 0.00 89 1025.2
20260510054601 42 0 0.0 0.0 0.00 0.01 0.01 89 1025.1
20260510053059 42 0 0.0 0.0 0.00 0.01 0.01 89 1025.0
20260510051607 42 0 0.0 0.0 0.01 0.01 0.01 89 1025.1
20260510050111 42 0 0.0 4.0 0.01 0.01 0.01 88 1025.1
20260510044555 42 0 0.0 0.0 0.01 0.01 0.01 85 1025.3
20260510043057 43 0 0.0 2.0 0.01 0.01 0.01 82 1025.2
20260510041600 43 105 0.0 2.0 0.00 0.00 0.00 81 1025.0
20260510040105 44 168 0.0 3.0 0.00 0.00 0.00 77 1025.3
20260510034559 44 133 0.0 6.0 0.00 0.00 0.00 77 1025.3
20260510033104 44 0 0.0 4.0 0.00 0.00 0.00 78 1025.1
20260510031602 44 82 0.0 4.0 0.00 0.00 0.00 78 1024.6
20260510024602 44 0 0.0 4.0 0.00 0.00 0.00 78 1024.0
20260510023056 44 85 3.0 14.0 0.00 0.00 0.00 77 1023.4
20260510021645 44 55 3.0 10.0 0.00 0.00 0.00 77 1022.9
20260510020101 45 49 3.0 14.0 0.00 0.00 0.00 75 1022.5
20260510014600 46 319 5.0 18.0 0.00 0.00 0.00 72 1022.1
20260510013107 47 79 5.0 15.0 0.00 0.00 0.00 68 1021.3
20260510011556 49 75 5.0 13.0 0.00 0.00 0.00 63 1020.6
20260510004555 56 81 6.0 15.0 0.00 0.00 0.00 47 1019.5
20260510003103 64 86 2.0 9.0 0.00 0.00 0.00 13 1017.9
20260510001603 65 353 1.0 10.0 0.00 0.00 0.00 12 1017.3
20260510000056 65 0 2.0 7.0 0.00 0.00 0.00 13 1017.2
20260509234557 67 225 3.0 9.0 0.00 0.00 0.00 12 1016.9
20260509233055 68 82 2.0 8.0 0.00 0.00 0.00 11 1016.7
20260509231604 68 32 2.0 9.0 0.00 0.00 0.00 11 1016.5
20260509230059 69 74 1.0 7.0 0.00 0.00 0.00 10 1016.3
20260509224600 70 174 2.0 8.0 0.00 0.00 0.00 9 1016.0
20260509223100 70 167 2.0 12.0 0.00 0.00 0.00 8 1016.2
20260509221556 70 36 4.0 17.0 0.00 0.00 0.00 10 1016.0
20260509220055 70 331 5.0 13.0 0.00 0.00 0.00 12 1015.9
20260509214555 71 159 4.0 12.0 0.00 0.00 0.00 11 1016.0
20260509213114 70 132 4.0 11.0 0.00 0.00 0.00 10 1016.1
20260509211604 71 63 3.0 14.0 0.00 0.00 0.00 11 1015.8
20260509210059 71 82 6.0 12.0 0.00 0.00 0.00 11 1016.0
20260509204556 71 91 5.0 11.0 0.00 0.00 0.00 13 1016.4
20260509203057 69 34 4.0 13.0 0.00 0.00 0.00 14 1016.5
20260509201605 68 236 5.0 10.0 0.00 0.00 0.00 15 1016.7
20260509200103 68 278 6.0 16.0 0.00 0.00 0.00 14 1017.0
20260509194601 68 76 4.0 12.0 0.00 0.00 0.00 16 1017.0
20260509193057 70 53 6.0 11.0 0.00 0.00 0.00 13 1017.0
20260509191607 70 124 2.0 8.0 0.00 0.00 0.00 14 1017.1
20260509190058 68 202 5.0 11.0 0.00 0.00 0.00 14 1017.3
20260509184610 68 116 3.0 14.0 0.00 0.00 0.00 14 1017.3
20260509183104 69 220 5.0 9.0 0.00 0.00 0.00 12 1017.0
20260509181602 68 101 6.0 15.0 0.00 0.00 0.00 13 1016.9
20260509180115 69 37 4.0 11.0 0.00 0.00 0.00 15 1017.2
20260509174604 68 44 3.0 13.0 0.00 0.00 0.00 16 1017.3
20260509173106 68 82 3.0 11.0 0.00 0.00 0.00 17 1017.3
20260509171559 67 96 4.0 11.0 0.00 0.00 0.00 18 1017.3
20260509170100 66 59 5.0 13.0 0.00 0.00 0.00 18 1017.2
20260509164555 67 122 5.0 11.0 0.00 0.00 0.00 19 1017.0
20260509163101 67 64 5.0 13.0 0.00 0.00 0.00 18 1016.9
20260509161604 66 51 5.0 14.0 0.00 0.00 0.00 18 1016.7
20260509154556 65 96 5.0 10.0 0.00 0.00 0.00 21 1016.5
20260509153104 65 120 3.0 6.0 0.00 0.00 0.00 21 1016.6
20260509151600 63 259 1.0 6.0 0.00 0.00 0.00 22 1016.9
20260509150056 62 45 2.0 5.0 0.00 0.00 0.00 22 1016.9
20260509144558 62 317 0.0 4.0 0.00 0.00 0.00 24 1017.1
20260509143100 61 210 2.0 5.0 0.00 0.00 0.00 23 1017.1
20260509141558 60 207 1.0 3.0 0.00 0.00 0.00 25 1017.1
20260509140108 56 199 0.0 6.0 0.00 0.00 0.00 32 1017.3
20260509134555 53 183 2.0 6.0 0.00 0.00 0.00 33 1017.2
20260509133054 52 205 3.0 6.0 0.00 0.00 0.00 36 1017.2
20260509131558 52 225 5.0 9.0 0.00 0.00 0.00 37 1017.2
20260509130100 52 189 5.0 10.0 0.00 0.00 0.00 37 1017.0